Location: Eaton Estates
(41.3089°N, 82.0057°W)
Time: 13:11:51
(UTC+00:00)

Spot 4 - Pass Details

Date: 17 June 2021
Orbit: 705 x 722 km, 98.3° (Epoch: 26 July)

Event Time Altitude Azimuth Distance (km) Brightness Sun altitude
Exits shadow 04:28:49 69° 130° (SE) 761 3.7 -23.8°
Maximum altitude 04:29:19 78° 75° (ENE) 731 3.8 -23.8°
Drops below altitude 10° 04:34:06 10° 350° (N) 2,188 7.4 -24.1°
Sets 04:36:22 0° 349° (N) 3,109 8.6 -24.2°
